EN

Hourly Weather Pakaur

Today, 5 March, Friday

Time Temperature Precipitation Wind Pressure Humidity
00:00 +22°C° 0 mm 1 mps 755 mmHg 26%
01:00 +21°C° 0 mm 1 mps 755 mmHg 27%
02:00 +21°C° 0 mm 1 mps 754 mmHg 27%
03:00 +20°C° 0 mm 1 mps 754 mmHg 28%
04:00 +20°C° 0 mm 1 mps 754 mmHg 28%
05:00 +20°C° 0 mm 1 mps 754 mmHg 28%
06:00 +20°C° 0 mm 1 mps 754 mmHg 28%
07:00 +23°C° 0 mm 1 mps 754 mmHg 25%
08:00 +26°C° 0 mm 2 mps 755 mmHg 21%
09:00 +29°C° 0 mm 2 mps 756 mmHg 18%
10:00 +33°C° 0 mm 3 mps 755 mmHg 15%
11:00 +35°C° 0 mm 3 mps 755 mmHg 12%
12:00 +38°C° 0 mm 4 mps 755 mmHg 10%
13:00 +38°C° 0 mm 4 mps 754 mmHg 9%
14:00 +40°C° 0 mm 5 mps 753 mmHg 8%
15:00 +40°C° 0 mm 5 mps 752 mmHg 8%
16:00 +37°C° 0 mm 4 mps 751 mmHg 9%
17:00 +35°C° 0 mm 3 mps 751 mmHg 11%
18:00 +32°C° 0 mm 2 mps 751 mmHg 12%
19:00 +30°C° 0 mm 2 mps 751 mmHg 15%
20:00 +28°C° 0 mm 2 mps 752 mmHg 17%
21:00 +26°C° 0 mm 1 mps 753 mmHg 19%
22:00 +25°C° 0 mm 1 mps 753 mmHg 20%
23:00 +24°C° 0 mm 1 mps 753 mmHg 22%

Tomorrow, 6 March, Saturday

Time Temperature Precipitation Wind Pressure Humidity
00:00 +23°C° 0 mm 1 mps 753 mmHg 23%
01:00 +22°C° 0 mm 1 mps 753 mmHg 24%
02:00 +22°C° 0 mm 1 mps 753 mmHg 26%
03:00 +19°C° 0 mm 0 mps 752 mmHg 27%
04:00 +21°C° 0 mm 1 mps 753 mmHg 32%
05:00 +20°C° 0 mm 1 mps 753 mmHg 38%
06:00 +19°C° 0 mm 2 mps 753 mmHg 44%
07:00 +23°C° 0 mm 2 mps 754 mmHg 40%
08:00 +25°C° 0 mm 2 mps 755 mmHg 36%
09:00 +28°C° 0 mm 2 mps 756 mmHg 33%
10:00 +31°C° 0 mm 2 mps 755 mmHg 27%
11:00 +33°C° 0 mm 1 mps 755 mmHg 21%
12:00 +35°C° 0 mm 1 mps 755 mmHg 16%
13:00 +37°C° 0 mm 2 mps 754 mmHg 13%
14:00 +38°C° 0 mm 3 mps 753 mmHg 11%
15:00 +39°C° 0 mm 3 mps 752 mmHg 8%
16:00 +37°C° 0 mm 3 mps 752 mmHg 10%
17:00 +35°C° 0 mm 3 mps 752 mmHg 12%
18:00 +33°C° 0 mm 3 mps 751 mmHg 13%
19:00 +30°C° 0 mm 3 mps 752 mmHg 15%
20:00 +28°C° 0 mm 2 mps 753 mmHg 16%
21:00 +25°C° 0 mm 2 mps 753 mmHg 18%
22:00 +24°C° 0 mm 1 mps 753 mmHg 19%
23:00 +23°C° 0 mm 1 mps 754 mmHg 19%

Day after tomorrow, 7 March, Sunday

Time Temperature Precipitation Wind Pressure Humidity
00:00 +23°C° 0 mm 1 mps 754 mmHg 20%
01:00 +22°C° 0 mm 1 mps 754 mmHg 21%
02:00 +21°C° 0 mm 1 mps 753 mmHg 22%
03:00 +21°C° 0 mm 1 mps 753 mmHg 24%
04:00 +20°C° 0 mm 1 mps 753 mmHg 24%
05:00 +18°C° 0 mm 0 mps 753 mmHg 25%
06:00 +18°C° 0 mm 0 mps 754 mmHg 26%
07:00 +23°C° 0 mm 1 mps 755 mmHg 23%
08:00 +26°C° 0 mm 2 mps 756 mmHg 20%
09:00 +29°C° 0 mm 2 mps 756 mmHg 17%
10:00 +31°C° 0 mm 2 mps 756 mmHg 15%
11:00 +34°C° 0 mm 2 mps 756 mmHg 14%
12:00 +36°C° 0 mm 2 mps 755 mmHg 13%
13:00 +37°C° 0 mm 2 mps 755 mmHg 12%
14:00 +38°C° 0 mm 2 mps 754 mmHg 11%
15:00 +39°C° 0 mm 1 mps 753 mmHg 10%
16:00 +37°C° 0 mm 2 mps 752 mmHg 11%
17:00 +35°C° 0 mm 2 mps 752 mmHg 12%
18:00 +34°C° 0 mm 3 mps 752 mmHg 14%
19:00 +31°C° 0 mm 3 mps 753 mmHg 15%
20:00 +29°C° 0 mm 2 mps 754 mmHg 16%
21:00 +27°C° 0 mm 2 mps 754 mmHg 17%
22:00 +26°C° 0 mm 2 mps 754 mmHg 20%
23:00 +25°C° 0 mm 1 mps 755 mmHg 23%

8 March, Monday

Time Temperature Precipitation Wind Pressure Humidity
00:00 +23°C° 0 mm 1 mps 755 mmHg 26%
01:00 +23°C° 0 mm 1 mps 755 mmHg 30%
02:00 +22°C° 0 mm 1 mps 754 mmHg 35%
03:00 +22°C° 0 mm 1 mps 754 mmHg 39%
04:00 +21°C° 0 mm 1 mps 754 mmHg 44%
05:00 +21°C° 0 mm 1 mps 754 mmHg 50%
06:00 +20°C° 0 mm 1 mps 754 mmHg 55%
07:00 +23°C° 0 mm 1 mps 755 mmHg 52%
08:00 +25°C° 0 mm 1 mps 756 mmHg 50%
09:00 +28°C° 0 mm 2 mps 757 mmHg 47%
10:00 +30°C° 0 mm 2 mps 756 mmHg 41%
11:00 +34°C° 0 mm 2 mps 756 mmHg 35%
12:00 +37°C° 0 mm 2 mps 756 mmHg 29%
13:00 +38°C° 0 mm 2 mps 755 mmHg 24%
14:00 +39°C° 0 mm 2 mps 754 mmHg 19%
15:00 +40°C° 0 mm 2 mps 753 mmHg 15%
16:00 +39°C° 0 mm 2 mps 752 mmHg 16%
17:00 +37°C° 0 mm 3 mps 752 mmHg 18%
18:00 +36°C° 0 mm 3 mps 752 mmHg 19%
19:00 +32°C° 0 mm 2 mps 752 mmHg 23%
20:00 +30°C° 0 mm 2 mps 753 mmHg 26%
21:00 +28°C° 0 mm 2 mps 754 mmHg 30%
22:00 +27°C° 0 mm 2 mps 754 mmHg 33%
23:00 +26°C° 0 mm 2 mps 754 mmHg 36%

9 March, Tuesday

Time Temperature Precipitation Wind Pressure Humidity
00:00 +25°C° 0 mm 2 mps 754 mmHg 40%
01:00 +24°C° 0 mm 2 mps 754 mmHg 42%
02:00 +24°C° 0 mm 1 mps 753 mmHg 44%
03:00 +24°C° 0 mm 1 mps 753 mmHg 46%
04:00 +23°C° 0 mm 1 mps 753 mmHg 54%
05:00 +22°C° 0 mm 1 mps 753 mmHg 62%
06:00 +22°C° 0 mm 1 mps 754 mmHg 70%
07:00 +24°C° 0 mm 1 mps 754 mmHg 65%
08:00 +26°C° 0 mm 1 mps 755 mmHg 61%
09:00 +29°C° 0 mm 2 mps 756 mmHg 56%
10:00 +31°C° 0 mm 2 mps 756 mmHg 48%
11:00 +35°C° 0 mm 2 mps 755 mmHg 39%
12:00 +38°C° 0 mm 2 mps 754 mmHg 30%
13:00 +39°C° 0 mm 2 mps 754 mmHg 25%
14:00 +40°C° 0 mm 2 mps 753 mmHg 20%
15:00 +41°C° 0 mm 2 mps 752 mmHg 15%
16:00 +40°C° 0 mm 2 mps 752 mmHg 15%
17:00 +38°C° 0 mm 2 mps 752 mmHg 16%
18:00 +37°C° 0 mm 2 mps 751 mmHg 16%
19:00 +35°C° 0 mm 2 mps 752 mmHg 19%
20:00 +31°C° 0 mm 1 mps 753 mmHg 22%
21:00 +29°C° 0 mm 1 mps 753 mmHg 24%
22:00 +28°C° 0 mm 1 mps 753 mmHg 30%
23:00 +27°C° 0 mm 1 mps 753 mmHg 35%

10 March, Wednesday

Time Temperature Precipitation Wind Pressure Humidity
00:00 +26°C° 0 mm 2 mps 754 mmHg 40%
01:00 +25°C° 0 mm 2 mps 753 mmHg 46%
02:00 +25°C° 0 mm 2 mps 753 mmHg 51%
03:00 +24°C° 0 mm 2 mps 752 mmHg 57%
04:00 +24°C° 0 mm 2 mps 753 mmHg 60%
05:00 +23°C° 0 mm 2 mps 753 mmHg 63%
06:00 +23°C° 0 mm 2 mps 753 mmHg 65%
07:00 +25°C° 0 mm 2 mps 754 mmHg 56%
08:00 +28°C° 0 mm 2 mps 755 mmHg 47%
09:00 +30°C° 0 mm 2 mps 755 mmHg 38%
10:00 +33°C° 0 mm 1 mps 755 mmHg 32%
11:00 +36°C° 0 mm 1 mps 755 mmHg 25%
12:00 +40°C° 0 mm 1 mps 754 mmHg 19%
13:00 +41°C° 0 mm 2 mps 753 mmHg 16%
14:00 +43°C° 0 mm 3 mps 752 mmHg 13%
15:00 +44°C° 0 mm 3 mps 751 mmHg 10%
16:00 +42°C° 0 mm 3 mps 751 mmHg 11%
17:00 +39°C° 0 mm 2 mps 751 mmHg 12%
18:00 +37°C° 0 mm 2 mps 751 mmHg 13%
19:00 +35°C° 0 mm 2 mps 751 mmHg 16%
20:00 +32°C° 0 mm 2 mps 752 mmHg 18%
21:00 +30°C° 0 mm 1 mps 752 mmHg 21%
22:00 +29°C° 0 mm 1 mps 753 mmHg 23%
23:00 +28°C° 0 mm 1 mps 753 mmHg 26%
Show more

We Need Your Consent

Meteoprog and our Service Providers may store and access personal data such as cookies, device identifiers or other similar technologies on your device and process such data to personalise content and ads, as well as provide social media features and to analyse the traffic.

  • Store and/or access information on your device

    Cookies, device identifiers or other information can be stored or accessed on your device for the purposes indicated above.

  • Personalised ads and content, ad and content measurement, audience insights, and products development

    Ads and content can be personalised based on a profile. More data can be added to better personalise ads and content. Ad and content performance can be measured. Insights about the audience who saw the ads and content can be derived. Such data can be used to develop or improve user’s experience, systems and software.

By clicking ‘I Agree’ you will allow the use of indicated cookies, device identifiers, web beacons or other similar technologies. Your settings can be changed in the browser on your device.

For certain purposes, legitimate interests may be relied on, rather than consent. You can read more about this in our Privacy and Cookie Policy.